Previsão horária em Alihe

Hoje, 18 Janeiro, Segunda-feira

Tempo Temperatura Precipitação Vento Pressão Humidade
00:00 -27°C° 0 mm 1 m/s 715 mmHg 92%
01:00 -28°C° 0 mm 1 m/s 715 mmHg 91%
02:00 -28°C° 0 mm 1 m/s 715 mmHg 91%
03:00 -29°C° 0 mm 1 m/s 715 mmHg 90%
04:00 -29°C° 0 mm 1 m/s 716 mmHg 89%
05:00 -30°C° 0 mm 1 m/s 716 mmHg 88%
06:00 -30°C° 0 mm 1 m/s 716 mmHg 88%
07:00 -30°C° 0 mm 1 m/s 717 mmHg 87%
08:00 -32°C° 0 mm 2 m/s 718 mmHg 87%
09:00 -31°C° 0 mm 2 m/s 718 mmHg 80%
10:00 -29°C° 0 mm 2 m/s 718 mmHg 72%
11:00 -28°C° 0 mm 2 m/s 718 mmHg 64%
12:00 -29°C° 0 mm 3 m/s 718 mmHg 62%
13:00 -27°C° 0 mm 3 m/s 718 mmHg 60%
14:00 -27°C° 0 mm 3 m/s 719 mmHg 57%
15:00 -29°C° 0 mm 3 m/s 719 mmHg 61%
16:00 -28°C° 0 mm 2 m/s 719 mmHg 64%
17:00 -29°C° 0 mm 2 m/s 719 mmHg 68%
18:00 -30°C° 0 mm 2 m/s 719 mmHg 70%
19:00 -28°C° 0 mm 1 m/s 720 mmHg 72%
20:00 -29°C° 0 mm 1 m/s 720 mmHg 75%
21:00 -29°C° 0 mm 1 m/s 720 mmHg 77%
22:00 -29°C° 0 mm 1 m/s 720 mmHg 78%
23:00 -29°C° 0 mm 1 m/s 720 mmHg 80%

Amanhã, 19 Janeiro, Terça-feira

Tempo Temperatura Precipitação Vento Pressão Humidade
00:00 -30°C° 0 mm 1 m/s 720 mmHg 80%
01:00 -30°C° 0 mm 1 m/s 720 mmHg 79%
02:00 -30°C° 0 mm 1 m/s 720 mmHg 79%
03:00 -30°C° 0 mm 1 m/s 719 mmHg 79%
04:00 -30°C° 0 mm 1 m/s 719 mmHg 79%
05:00 -30°C° 0 mm 1 m/s 719 mmHg 79%
06:00 -30°C° 0 mm 1 m/s 719 mmHg 79%
07:00 -29°C° 0 mm 1 m/s 719 mmHg 80%
08:00 -29°C° 0 mm 1 m/s 719 mmHg 80%
09:00 -27°C° 0 mm 1 m/s 719 mmHg 76%
10:00 -25°C° 0 mm 1 m/s 719 mmHg 71%
11:00 -23°C° 0 mm 1 m/s 719 mmHg 66%
12:00 -22°C° 0 mm 1 m/s 718 mmHg 67%
13:00 -21°C° 0 mm 1 m/s 718 mmHg 67%
14:00 -24°C° 0 mm 2 m/s 717 mmHg 68%
15:00 -22°C° 0 mm 1 m/s 717 mmHg 74%
16:00 -23°C° 0 mm 1 m/s 717 mmHg 80%
17:00 -24°C° 0 mm 1 m/s 718 mmHg 87%
18:00 -24°C° 0 mm 1 m/s 718 mmHg 88%
19:00 -24°C° 0 mm 1 m/s 717 mmHg 89%
20:00 -25°C° 0 mm 1 m/s 717 mmHg 90%
21:00 -25°C° 0 mm 1 m/s 717 mmHg 91%
22:00 -24°C° 0 mm 1 m/s 717 mmHg 91%
23:00 -24°C° 0 mm 0 m/s 717 mmHg 91%

Depois de amanhã, 20 Janeiro, Quarta-feira

Tempo Temperatura Precipitação Vento Pressão Humidade
00:00 -24°C° 0 mm 0 m/s 717 mmHg 92%
01:00 -24°C° 0 mm 0 m/s 716 mmHg 92%
02:00 -24°C° 0 mm 1 m/s 716 mmHg 92%
03:00 -24°C° 0 mm 0 m/s 715 mmHg 91%
04:00 -23°C° 0 mm 0 m/s 715 mmHg 90%
05:00 -23°C° 0 mm 0 m/s 714 mmHg 90%
06:00 -22°C° 0.1 mm 0 m/s 714 mmHg 92%
07:00 -22°C° 0.1 mm 0 m/s 714 mmHg 94%
08:00 -21°C° 0.1 mm 0 m/s 713 mmHg 96%
09:00 -21°C° 0.5 mm 0 m/s 713 mmHg 95%
10:00 -20°C° 0.5 mm 0 m/s 713 mmHg 94%
11:00 -19°C° 0.5 mm 0 m/s 713 mmHg 92%
12:00 -19°C° 0.3 mm 0 m/s 713 mmHg 91%
13:00 -19°C° 0.3 mm 0 m/s 712 mmHg 90%
14:00 -18°C° 0.3 mm 0 m/s 712 mmHg 89%
15:00 -19°C° 0.1 mm 0 m/s 713 mmHg 92%
16:00 -20°C° 0.1 mm 0 m/s 713 mmHg 95%
17:00 -21°C° 0.1 mm 0 m/s 714 mmHg 98%
18:00 -22°C° 0 mm 0 m/s 715 mmHg 98%
19:00 -23°C° 0 mm 0 m/s 715 mmHg 98%
20:00 -24°C° 0 mm 0 m/s 716 mmHg 98%
21:00 -24°C° 0 mm 0 m/s 716 mmHg 98%
22:00 -24°C° 0 mm 0 m/s 716 mmHg 98%
23:00 -24°C° 0 mm 0 m/s 717 mmHg 98%

21 Janeiro, Quinta-feira

Tempo Temperatura Precipitação Vento Pressão Humidade
00:00 -25°C° 0 mm 0 m/s 717 mmHg 97%
01:00 -25°C° 0 mm 0 m/s 717 mmHg 97%
02:00 -25°C° 0 mm 0 m/s 718 mmHg 97%
03:00 -25°C° 0 mm 0 m/s 718 mmHg 96%
04:00 -25°C° 0 mm 0 m/s 718 mmHg 96%
05:00 -25°C° 0 mm 0 m/s 718 mmHg 96%
06:00 -25°C° 0 mm 0 m/s 718 mmHg 95%
07:00 -25°C° 0 mm 0 m/s 718 mmHg 94%
08:00 -24°C° 0 mm 0 m/s 718 mmHg 94%
09:00 -22°C° 0 mm 1 m/s 719 mmHg 87%
10:00 -19°C° 0 mm 1 m/s 719 mmHg 80%
11:00 -17°C° 0 mm 1 m/s 719 mmHg 73%
12:00 -16°C° 0 mm 1 m/s 719 mmHg 68%
13:00 -17°C° 0 mm 2 m/s 719 mmHg 64%
14:00 -17°C° 0 mm 3 m/s 718 mmHg 59%
15:00 -18°C° 0 mm 2 m/s 719 mmHg 66%
16:00 -18°C° 0 mm 1 m/s 719 mmHg 73%
17:00 -20°C° 0 mm 1 m/s 719 mmHg 81%
18:00 -21°C° 0 mm 1 m/s 719 mmHg 82%
19:00 -22°C° 0 mm 1 m/s 720 mmHg 83%
20:00 -23°C° 0 mm 1 m/s 720 mmHg 85%
21:00 -23°C° 0 mm 1 m/s 720 mmHg 85%
22:00 -24°C° 0 mm 0 m/s 720 mmHg 86%
23:00 -25°C° 0 mm 0 m/s 720 mmHg 87%

22 Janeiro, Sexta-feira

Tempo Temperatura Precipitação Vento Pressão Humidade
00:00 -25°C° 0 mm 0 m/s 720 mmHg 87%
01:00 -25°C° 0 mm 1 m/s 720 mmHg 88%
02:00 -27°C° 0 mm 1 m/s 720 mmHg 88%
03:00 -27°C° 0 mm 1 m/s 721 mmHg 88%
04:00 -27°C° 0 mm 1 m/s 721 mmHg 88%
05:00 -28°C° 0 mm 1 m/s 721 mmHg 89%
06:00 -28°C° 0 mm 1 m/s 721 mmHg 89%
07:00 -28°C° 0 mm 1 m/s 722 mmHg 89%
08:00 -28°C° 0 mm 1 m/s 722 mmHg 89%
09:00 -25°C° 0 mm 1 m/s 722 mmHg 82%
10:00 -22°C° 0 mm 1 m/s 722 mmHg 76%
11:00 -20°C° 0 mm 1 m/s 722 mmHg 69%
12:00 -19°C° 0 mm 1 m/s 722 mmHg 66%
13:00 -18°C° 0 mm 1 m/s 722 mmHg 62%
14:00 -17°C° 0 mm 1 m/s 722 mmHg 59%
15:00 -19°C° 0 mm 1 m/s 722 mmHg 66%
16:00 -21°C° 0 mm 1 m/s 722 mmHg 73%
17:00 -22°C° 0 mm 0 m/s 722 mmHg 80%
18:00 -23°C° 0 mm 0 m/s 722 mmHg 81%
19:00 -23°C° 0 mm 0 m/s 722 mmHg 83%
20:00 -24°C° 0 mm 0 m/s 722 mmHg 84%
21:00 -24°C° 0 mm 0 m/s 722 mmHg 85%
22:00 -25°C° 0 mm 0 m/s 722 mmHg 86%
23:00 -25°C° 0 mm 0 m/s 722 mmHg 86%

23 Janeiro, Sábado

Tempo Temperatura Precipitação Vento Pressão Humidade
00:00 -25°C° 0 mm 0 m/s 722 mmHg 87%
01:00 -25°C° 0 mm 0 m/s 721 mmHg 88%
02:00 -26°C° 0 mm 0 m/s 721 mmHg 89%
03:00 -26°C° 0 mm 0 m/s 721 mmHg 89%
04:00 -26°C° 0 mm 0 m/s 720 mmHg 90%
05:00 -26°C° 0 mm 0 m/s 720 mmHg 90%
06:00 -25°C° 0 mm 0 m/s 720 mmHg 90%
07:00 -25°C° 0 mm 0 m/s 720 mmHg 90%
08:00 -24°C° 0 mm 0 m/s 720 mmHg 90%
09:00 -23°C° 0 mm 0 m/s 720 mmHg 85%
10:00 -21°C° 0 mm 1 m/s 719 mmHg 81%
11:00 -19°C° 0 mm 1 m/s 719 mmHg 76%
12:00 -18°C° 0 mm 1 m/s 719 mmHg 74%
13:00 -17°C° 0 mm 1 m/s 718 mmHg 73%
14:00 -16°C° 0 mm 1 m/s 718 mmHg 71%
15:00 -17°C° 0 mm 1 m/s 718 mmHg 78%
16:00 -19°C° 0 mm 1 m/s 718 mmHg 85%
17:00 -20°C° 0 mm 1 m/s 718 mmHg 91%
18:00 -21°C° 0 mm 0 m/s 718 mmHg 92%
19:00 -21°C° 0 mm 0 m/s 719 mmHg 93%
20:00 -22°C° 0 mm 0 m/s 719 mmHg 95%
21:00 -22°C° 0 mm 0 m/s 719 mmHg 95%
22:00 -22°C° 0 mm 0 m/s 719 mmHg 95%
23:00 -22°C° 0 mm 0 m/s 719 mmHg 96%
Mostrar mais

Necessitamos do seu Consentimento

A Meteoprog e os seus Fornecedores de Serviços podem armazenar e aceder a dados pessoais como cookies, identificadores do dispositivo ou outras tecnologias semelhantes existentes no seu dispositivo e processar estes dados para personalizar conteúdos e anúncios, assim como funcionalidades nas redes sociais e análise de tráfego.

  • Armazenar e/ou aceder a informações no seu dispositivo

    Os cookies, identificadores do dispositivo ou outras informações podem ser armazenados ou acedidos no seu dispositivo, para os fins acima indicados.

  • Anúncios e conteúdos personalizados, medição de anúncios e conteúdos, dados sobre o público-alvo e desenvolvimento de produtos

    Os anúncios e os conteúdos podem ser personalizados com base num perfil. Podem ser adicionados dados adicionais para uma maior personalização dos anúncios e dos conteúdos. A eficácia dos anúncios e dos conteúdos pode ser medida. Podem ser obtidas informações sobre o público que visualizou os anúncios e os conteúdos. Estes dados podem ser usados para desenvolver ou melhorar sistemas, softwares ou a experiência do utilizador.

Ao clicar em "Eu concordo”, permitirá o uso de cookies, identificadores do dispositivo e web beacons mencionados ou outras tecnologias semelhantes. As configurações do navegador do seu dispositivo podem ser alteradas.

Para certos fins, podem ser invocados interesses legítimos ao invés de consentimento. Pode ler mais informação sobre este assunto na nossa Política de Privacidade e Cookies.